This is the latest recevied weather packets stored in our database for station/object IK1PCD-11. If no packets are shown the sender has not sent any weather packets the latest 10 day(s).
| Time | Temp. | Humidity | Pressure | Rain* | Wind** | Luminosity | Snow |
|---|---|---|---|---|---|---|---|
| 1787376350 | 11.67° C | 100% | 1016.3 hPa | - | - | - | - |
| 1787375449 | 11.67° C | 100% | 1016.3 hPa | - | - | - | - |
| 1787374549 | 11.67° C | 100% | 1016.2 hPa | - | - | - | - |
| 1787373649 | 12.22° C | 100% | 1016 hPa | - | - | - | - |
| 1787372755 | 12.22° C | 100% | 1016.1 hPa | - | - | - | - |
| 1787371841 | 12.22° C | 100% | 1016 hPa | - | - | - | - |
| 1787370940 | 12.78° C | 100% | 1015.9 hPa | - | - | - | - |
| 1787370043 | 12.78° C | 100% | 1015.7 hPa | - | - | - | - |
| 1787369143 | 12.78° C | 100% | 1015.9 hPa | - | - | - | - |
| 1787368243 | 12.22° C | 100% | 1015.7 hPa | - | - | - | - |
| 1787367342 | 12.22° C | 100% | 1015.7 hPa | - | - | - | - |
| 1787366442 | 12.78° C | 100% | 1015.7 hPa | - | - | - | - |
| 1787363742 | 12.78° C | 100% | 1015.5 hPa | - | - | - | - |
| 1787362841 | 13.33° C | 100% | 1015.5 hPa | - | - | - | - |
| 1787361941 | 13.33° C | 100% | 1015.6 hPa | - | - | - | - |
| 1787361041 | 13.33° C | 100% | 1015.6 hPa | - | - | - | - |
| 1787360140 | 13.89° C | 100% | 1015.5 hPa | - | - | - | - |
| 1787359240 | 13.89° C | 100% | 1015.5 hPa | - | - | - | - |
| 1787358340 | 13.89° C | 100% | 1015.4 hPa | - | - | - | - |
| 1787357440 | 14.44° C | 100% | 1015.5 hPa | - | - | - | - |
* Rain since midnight (hover to see other rain measurements)
** Current wind speed in m/s (hover to see current wind gust speed)